Onalaska, WI

8:45 PM CST on January 20, 2017 (GMT -0600)
La Crosse Municipal

Weather History for KLSE - June, 2013

Change the Weather History Date:

Thursday, June 27, 2013

  Actual Average Record
Temperature  
Mean Temperature 78 °F 72 °F  
Max Temperature 89 °F 83 °F 99 °F (1933)
Min Temperature 67 °F 62 °F 44 °F (1992)
Degree Days  
Heating Degree Days 0 0  
Month to date heating degree days 44 38  
Since 1 June heating degree days 44  
Since 1 July heating degree days 7471 7195  
Cooling Degree Days 13 8  
Month to date cooling degree days 140 142  
Year to date cooling degree days 200 190  
Since 1 June cooling degree days 140  
Growing Degree Days 27 (Base 50)    
Moisture  
Dew Point 64 °F    
Average Humidity 69    
Maximum Humidity 100    
Minimum Humidity 37    
Precipitation  
Precipitation 0.00 in 0.16 in 2.20 in (1914)
Month to date precipitation 5.60 3.90  
Year to date precipitation 24.53 14.97  
Snow  
Snow 0.00 in 0.00 in 0.00 in (2002)
Month to date snowfall 0.0 0.0  
Since 1 June snowfall 0.0  
Since 1 July snowfall 60.6 43.3  
Snow Depth 0.00 in    
Sea Level Pressure  
Sea Level Pressure 29.75 in    
Wind  
Wind Speed 7 mph (West)    
Max Wind Speed 21 mph    
Max Gust Speed 30 mph    
Visibility 10 miles    
Events      
T = Trace of Precipitation, MM = Missing Value Source: NWS Daily Summary

Daily Weather History Graph

Daily Weather History Graph

Search for Another Location

Airport or City:

Trip Planner

Search our weather history database for the weather conditions in past years. The results will help you decide how hot, cold, wet, or windy it might be!

Date:

Astronomy

Jun. 27, 2013 Rise Set
Actual Time 5:24 AM CDT 8:51 PM CDT
Civil Twilight 4:48 AM CDT 9:27 PM CDT
Nautical Twilight 4:01 AM CDT 10:15 PM CDT
Astronomical Twilight 3:01 AM CDT 11:14 PM CDT
Moon 11:36 PM CDT (6/27) 10:36 AM CDT (6/27)
Length of Visible Light 16h 39m
Length of Day
15h 26m
Waning Gibbous, 76% of the Moon is Illuminated
Jun 27
Waning Gibbous
Jun 29
Last Quarter
Jul 8
New
Jul 15
First Quarter
Jul 22
Full

Hourly Weather History & Observations

Time (CDT) Temp. Heat Index Dew Point Humidity Pressure Visibility Wind Dir Wind Speed Gust Speed Precip Events Conditions
12:53 AM 72.0 °F - 69.1 °F 91% 29.76 in 10.0 mi Calm Calm - N/A   Clear
1:53 AM 70.0 °F - 69.1 °F 97% 29.75 in 10.0 mi SE 3.5 mph - N/A   Clear
2:53 AM 71.1 °F - 69.1 °F 93% 29.75 in 10.0 mi Calm Calm - N/A   Clear
3:37 AM 69.8 °F - 68.0 °F 94% 29.79 in 2.5 mi Calm Calm - N/A   Clear
3:45 AM 69.8 °F - 69.8 °F 100% 29.79 in 7.0 mi Calm Calm - N/A   Clear
3:53 AM 70.0 °F - 69.1 °F 97% 29.77 in 9.0 mi Calm Calm - N/A   Clear
4:53 AM 69.1 °F - 68.0 °F 96% 29.78 in 10.0 mi SE 3.5 mph - N/A   Clear
5:53 AM 66.9 °F - 66.0 °F 97% 29.78 in 8.0 mi Calm Calm - N/A   Clear
6:53 AM 70.0 °F - 68.0 °F 93% 29.78 in 10.0 mi Calm Calm - N/A   Clear
7:53 AM 71.1 °F - 68.0 °F 90% 29.78 in 10.0 mi Calm Calm - N/A   Clear
8:53 AM 75.9 °F - 68.0 °F 76% 29.79 in 10.0 mi SW 3.5 mph - N/A   Mostly Cloudy
9:53 AM 80.1 °F 82.9 °F 69.1 °F 69% 29.77 in 10.0 mi South 6.9 mph - N/A   Partly Cloudy
10:53 AM 82.9 °F 85.4 °F 66.9 °F 58% 29.74 in 10.0 mi SSW 10.4 mph - N/A   Clear
11:53 AM 86.0 °F 88.8 °F 66.9 °F 53% 29.74 in 10.0 mi WSW 9.2 mph - N/A   Scattered Clouds
12:53 PM 88.0 °F 90.3 °F 66.0 °F 48% 29.73 in 10.0 mi NW 9.2 mph - N/A   Scattered Clouds
1:53 PM 87.1 °F 87.5 °F 62.1 °F 43% 29.74 in 10.0 mi NW 15.0 mph 20.7 mph N/A   Partly Cloudy
2:53 PM 88.0 °F 88.4 °F 62.1 °F 42% 29.73 in 10.0 mi WNW 13.8 mph - N/A   Clear
3:53 PM 88.0 °F 87.6 °F 60.1 °F 39% 29.72 in 10.0 mi WNW 16.1 mph 24.2 mph N/A   Clear
4:53 PM 87.1 °F 86.7 °F 60.1 °F 40% 29.71 in 10.0 mi WNW 20.7 mph 29.9 mph N/A   Scattered Clouds
5:53 PM 86.0 °F 85.7 °F 60.1 °F 41% 29.71 in 10.0 mi WNW 9.2 mph 19.6 mph N/A   Partly Cloudy
6:53 PM 84.9 °F 83.7 °F 55.9 °F 37% 29.71 in 10.0 mi WNW 13.8 mph 23.0 mph N/A   Clear
7:53 PM 82.0 °F 81.7 °F 57.0 °F 42% 29.72 in 10.0 mi WNW 11.5 mph - N/A   Clear
8:53 PM 79.0 °F - 57.0 °F 47% 29.73 in 10.0 mi NW 9.2 mph - N/A   Clear
9:53 PM 73.9 °F - 59.0 °F 59% 29.74 in 10.0 mi WNW 4.6 mph - N/A   Clear
10:53 PM 73.0 °F - 59.0 °F 61% 29.73 in 10.0 mi NNW 3.5 mph - N/A   Clear
11:53 PM 71.1 °F - 59.0 °F 66% 29.73 in 10.0 mi Calm Calm - N/A   Clear